GFSNE_850_thetae_000.txt.gz
Theta_e
332 331 329 328 325 324 320 319 318 318 318 318 318 319 318 318 323 327 326 331 335 337 336 336 336 340 344 340 341 342 341 339 338 335 332 333 334 338
331 330 330 327 325 325 324 320 319 319 319 319 317 317 317 318 319 326 331 331 333 333 334 334 335 335 342 343 342 341 342 342 341 337 334 333 332 331
330 327 327 327 325 326 325 323 319 320 319 318 318 318 320 319 320 322 328 330 331 332 336 337 335 338 340 342 344 343 344 343 341 341 338 337 333 330
327 328 328 328 322 324 326 325 322 322 320 317 317 319 321 320 320 322 323 328 332 332 333 335 337 335 336 339 341 341 342 342 341 339 338 337 337 334
329 327 324 322 321 321 324 325 325 324 321 320 319 319 319 319 320 321 322 323 330 333 333 333 334 335 338 337 338 340 341 342 341 340 336 335 335 336
324 323 322 322 323 322 323 323 322 322 320 319 319 319 319 319 319 320 321 322 326 331 334 333 332 333 334 337 339 338 340 341 341 340 338 337 336 335
323 323 323 322 321 322 324 324 324 324 320 320 319 319 319 320 319 320 320 322 322 327 332 335 332 334 335 338 335 335 339 340 341 340 340 338 337 337
323 323 323 322 321 322 323 323 323 322 321 321 320 318 318 319 319 320 320 321 322 325 329 336 335 334 338 338 335 337 339 340 341 338 338 337 336 336
322 323 324 322 321 322 321 321 321 320 320 320 318 318 318 317 318 320 321 321 320 323 327 334 339 335 334 339 337 334 334 338 342 342 341 337 335 335
322 321 321 320 322 322 322 321 321 320 320 319 318 318 317 317 318 320 321 321 321 323 325 329 336 338 335 338 339 339 339 339 339 342 342 340 335 335
322 322 322 322 321 320 322 322 321 321 321 319 317 317 317 316 319 320 321 321 321 323 325 328 336 338 338 336 337 339 339 338 342 343 340 339 335 335
322 322 323 320 319 322 322 321 322 321 319 320 320 318 317 317 319 320 320 322 324 324 326 330 336 338 338 337 339 338 338 336 342 343 342 340 335 334
322 321 318 317 319 321 321 322 319 317 319 320 320 318 317 317 319 319 321 324 325 326 336 335 334 337 337 340 339 338 339 336 341 340 344 342 338 337
317 316 318 319 321 320 321 320 318 317 318 320 319 317 317 317 319 320 321 329 328 328 331 337 339 337 335 338 338 336 336 337 338 338 341 342 342 341
315 315 318 320 320 320 320 318 316 316 318 319 318 318 317 317 319 320 321 329 331 332 327 337 336 338 337 336 339 337 336 338 339 340 340 342 343 341
312 313 319 321 320 319 318 315 315 316 317 318 318 318 317 317 318 319 319 324 331 330 329 331 336 338 336 335 337 337 336 336 335 334 337 341 341 340
313 314 320 321 318 316 315 315 316 316 316 317 318 318 318 318 317 319 320 320 321 329 335 330 333 337 336 336 336 337 337 337 335 336 336 338 341 341
315 317 318 317 315 314 315 315 314 314 315 316 318 318 319 319 317 318 319 319 320 320 325 333 335 336 336 336 336 336 336 338 338 337 337 339 339 340
315 315 314 314 313 313 312 310 309 310 312 314 315 316 317 318 317 317 318 319 319 319 321 322 334 336 336 336 334 335 336 335 336 338 338 339 338 339
314 312 313 311 311 310 308 306 305 306 307 308 312 312 314 316 318 318 317 319 318 319 319 321 322 328 335 334 328 325 333 333 333 333 335 336 336 338
311 312 310 310 309 309 307 305 304 304 304 305 307 310 311 313 315 318 318 318 320 319 319 320 321 321 322 322 323 323 325 332 333 333 332 338 336 339
310 309 309 309 308 305 303 299 299 301 301 302 303 305 307 307 311 315 318 319 319 320 320 319 320 320 320 320 320 321 322 323 327 332 334 339 339 339
307 306 306 305 305 303 298 294 295 299 299 300 300 301 301 302 305 310 316 318 318 320 320 318 318 318 321 318 320 320 321 321 322 323 324 325 334 334

GFSNE_850_thetae_003.txt.gz
Theta_e
330 330 330 329 329 326 325 323 322 320 319 318 319 317 316 317 320 321 319 318 326 326 331 336 337 339 338 338 341 341 339 338 340 338 336 334 335 335
330 330 331 329 328 327 326 325 324 324 320 319 320 317 316 319 319 320 320 320 322 326 327 331 336 337 336 336 338 338 340 339 337 337 337 336 335 334
329 331 329 326 328 329 327 325 325 325 323 321 323 320 316 318 319 319 319 319 320 323 327 329 332 334 334 335 337 336 337 342 335 336 338 339 340 337
327 329 329 329 329 328 324 322 324 324 324 324 323 320 318 317 318 319 319 319 320 321 323 328 331 332 335 336 335 334 337 343 340 338 339 340 341 341
324 325 324 324 323 323 323 324 324 324 324 323 322 320 318 318 318 319 318 318 319 321 322 325 330 333 334 336 336 336 338 341 342 342 340 339 339 339
325 323 322 322 322 321 320 321 323 324 324 324 323 321 319 319 318 318 318 318 318 319 320 323 327 334 334 333 335 336 335 339 341 341 340 340 340 339
323 321 322 323 323 323 320 320 322 323 322 322 322 320 320 319 318 318 317 318 318 319 320 322 325 330 335 333 333 334 334 336 336 338 340 341 340 339
324 322 321 321 322 322 320 321 322 322 321 321 320 320 319 318 317 317 316 317 318 319 320 321 324 333 333 337 332 333 333 335 337 339 339 342 340 339
325 322 320 320 320 320 320 322 321 321 321 321 319 319 319 317 317 317 316 317 318 319 320 321 323 326 335 339 336 334 334 336 338 336 336 341 341 340
325 321 321 320 320 321 321 321 320 321 321 320 321 320 318 317 318 317 316 317 318 319 320 321 322 324 332 338 337 335 337 338 335 337 340 341 341 341
324 321 322 321 322 322 320 320 321 321 321 319 317 318 319 320 318 315 317 318 318 318 321 322 323 325 329 336 339 337 339 339 336 334 337 341 342 342
323 322 322 322 321 318 320 321 321 321 320 318 316 318 320 318 316 316 318 317 317 318 321 322 323 325 328 335 339 337 338 339 336 339 338 340 341 342
323 320 319 316 318 320 321 320 320 320 318 315 318 319 318 316 316 317 319 317 319 321 323 327 328 328 332 339 338 336 337 338 339 339 337 339 343 341
319 317 314 315 318 320 320 318 319 317 315 316 317 318 318 316 316 316 319 318 321 326 328 329 332 330 335 338 338 337 338 338 337 337 337 342 342 341
319 317 314 315 318 319 319 318 316 315 315 316 317 317 317 318 317 315 318 318 322 327 326 327 330 335 338 339 337 337 338 338 337 337 340 341 339 342
318 316 312 315 319 319 317 316 314 315 315 315 316 317 318 318 317 315 318 319 320 323 327 328 329 331 336 337 336 335 338 337 336 337 338 339 338 341
318 317 315 316 319 319 316 314 314 314 314 315 316 317 317 317 316 316 318 318 318 320 325 331 328 333 334 335 337 336 335 337 337 336 337 337 339 341
317 314 316 318 317 314 313 313 311 311 310 312 313 314 315 315 316 316 318 318 319 320 321 326 329 330 333 335 336 336 335 338 337 336 336 335 337 339
312 314 315 315 313 312 311 310 309 307 307 307 308 310 312 314 316 317 317 319 318 320 319 321 324 327 333 334 331 336 335 336 336 336 336 336 335 335
313 313 313 312 311 310 309 308 308 307 306 305 305 306 308 310 315 316 318 319 318 318 320 319 321 321 324 326 321 329 334 336 336 336 336 336 337 338
310 310 310 310 309 309 307 305 301 300 302 302 302 303 304 306 312 316 318 318 320 318 318 318 318 320 320 320 320 320 325 332 333 333 333 333 335 334
310 310 309 309 307 306 306 303 297 297 300 300 300 301 301 302 307 314 317 317 319 317 317 318 317 317 318 320 320 320 320 321 327 331 332 332 334 335
308 307 306 305 304 303 300 295 295 298 298 299 299 299 299 300 302 310 314 316 317 319 318 316 316 316 317 318 320 320 320 319 320 323 324 328 334 335

GFSNE_850_thetae_006.txt.gz
Theta_e
330 329 329 328 328 328 328 326 326 325 325 320 319 318 320 321 316 317 318 318 319 319 320 319 323 325 335 338 338 337 340 342 342 339 339 339 339 328
326 328 330 330 330 326 327 328 328 324 325 322 320 320 320 322 319 316 317 318 318 318 318 319 321 325 326 334 337 337 338 338 341 341 339 338 339 337
326 327 327 328 328 328 328 329 328 323 323 321 322 321 320 321 321 317 317 318 318 318 319 319 319 321 326 327 333 336 338 337 337 341 340 338 338 336
330 331 327 328 326 328 328 327 324 324 326 324 322 322 323 322 321 318 318 319 318 318 318 318 318 320 322 326 329 334 337 336 336 339 339 341 339 336
327 326 324 324 322 322 322 322 321 321 323 324 323 322 323 321 319 318 319 319 318 318 318 317 318 319 321 323 328 330 334 334 335 338 337 340 341 338
326 323 324 321 321 322 322 322 322 320 321 322 322 321 321 320 319 319 319 318 316 318 318 318 318 319 319 322 324 330 331 333 335 335 335 340 341 339
326 324 323 323 320 320 321 322 322 321 322 321 321 320 320 320 320 319 319 318 317 318 317 317 318 319 320 322 325 328 332 332 335 335 335 340 342 342
326 325 325 324 320 320 320 320 320 320 322 321 322 321 320 320 320 320 319 318 318 317 316 317 318 319 320 320 327 330 333 333 333 335 335 338 341 342
327 327 327 325 321 321 320 320 320 322 321 321 321 321 320 319 318 319 319 318 318 316 317 318 319 319 320 320 323 331 333 334 332 334 335 336 339 339
326 326 326 325 322 321 321 321 322 320 320 321 321 320 318 316 317 319 320 318 316 317 317 318 318 319 320 320 322 328 334 336 335 333 333 334 335 336
326 325 324 323 322 322 321 321 319 318 320 320 319 316 315 318 320 318 316 317 316 317 317 317 318 319 320 321 323 328 335 337 335 333 333 334 337 338
324 323 323 323 320 319 317 317 319 320 318 317 315 313 317 319 319 317 317 316 315 316 317 317 318 320 321 322 324 328 336 337 335 335 337 337 337 337
323 323 321 318 315 315 317 319 320 318 317 316 314 317 317 317 317 318 316 315 317 317 319 318 319 321 322 325 331 329 336 337 336 338 338 337 335 337
323 321 319 316 314 314 316 318 319 316 315 314 316 316 317 318 318 318 315 316 318 318 320 324 323 322 323 325 327 334 336 338 338 339 339 335 336 335
322 320 319 316 313 314 317 319 317 315 314 315 315 316 317 317 317 317 316 317 319 319 320 325 325 325 327 327 333 336 336 336 337 338 338 339 339 338
320 320 319 317 315 315 317 318 316 313 314 313 313 313 313 313 315 316 317 319 318 318 321 325 327 325 327 331 334 337 337 337 337 338 339 339 338 337
319 319 318 316 316 317 318 315 312 312 311 309 308 308 309 310 312 316 317 318 318 318 319 322 326 328 329 331 334 336 335 336 337 338 338 338 337 340
318 316 314 314 316 316 314 312 311 310 309 308 307 306 306 307 310 315 317 319 317 317 318 319 323 325 329 330 334 336 335 334 335 337 338 338 338 341
315 312 313 314 314 313 311 310 310 308 307 306 304 304 303 305 309 315 318 319 318 317 316 317 320 323 326 325 329 333 332 335 334 336 337 338 338 339
313 311 312 311 311 310 309 309 307 305 300 301 301 301 302 302 306 314 316 319 317 318 316 317 319 320 320 321 321 322 332 335 336 336 337 337 337 336
311 310 310 310 309 308 308 307 306 301 297 299 300 300 300 300 303 312 315 317 319 317 317 317 317 319 320 319 319 319 321 331 335 336 336 336 337 336
308 309 309 308 307 306 306 305 299 295 298 299 299 299 299 299 301 307 312 315 317 317 317 317 316 316 316 317 319 319 318 320 323 332 335 336 336 335
307 307 306 305 303 302 300 296 295 297 298 298 298 298 298 298 299 301 308 312 315 316 318 319 318 317 318 316 317 318 320 318 318 320 326 331 332 331

GFSNE_850_thetae_009.txt.gz
Theta_e
329 328 327 332 330 330 330 328 329 329 328 325 324 322 319 319 319 321 321 318 317 317 317 318 318 318 319 320 322 328 336 335 338 341 341 340 341 340
323 325 325 327 328 328 328 329 328 329 328 325 325 323 319 320 321 321 322 320 317 317 318 318 318 318 318 319 320 322 326 336 337 338 341 341 341 341
324 324 325 327 328 327 326 327 329 329 329 324 325 326 320 319 320 321 320 318 317 318 318 318 317 317 318 318 319 319 323 326 336 338 338 340 342 340
325 326 325 325 324 323 323 322 323 324 325 326 323 325 326 323 320 319 319 318 318 318 318 318 317 318 318 318 318 319 320 324 327 335 338 337 339 341
325 326 325 326 324 322 321 322 327 323 325 325 324 324 325 325 325 322 323 321 320 320 320 318 317 319 318 317 319 319 319 321 325 328 335 337 336 337
325 327 327 324 323 322 321 320 321 322 325 325 325 325 325 324 324 324 323 323 323 322 321 319 319 319 319 319 319 319 319 320 322 326 330 336 337 335
323 325 327 326 324 324 323 320 319 322 325 325 324 324 324 323 323 323 323 322 321 321 321 321 321 320 319 320 320 321 321 320 322 324 328 333 335 335
325 327 328 327 327 326 325 321 320 320 320 321 324 324 324 323 323 323 321 320 319 320 321 320 320 319 319 320 319 319 320 320 326 324 328 330 334 334
328 329 329 326 326 327 325 322 322 321 321 321 321 321 321 321 319 317 316 318 319 319 319 318 319 318 317 318 319 319 320 320 322 328 328 331 332 334
330 329 328 326 326 325 324 322 322 322 321 319 320 320 319 318 315 316 319 319 319 318 319 319 318 317 318 318 318 319 320 320 321 326 331 332 333 334
329 326 327 325 323 323 323 320 319 318 318 319 319 317 316 313 317 317 318 318 318 319 317 317 317 317 317 317 318 319 320 321 321 323 332 333 333 333
328 325 325 323 323 321 317 315 316 317 318 319 317 312 314 317 317 318 318 318 318 317 318 317 317 316 317 318 319 322 324 323 322 324 333 334 333 333
326 325 324 323 320 318 316 315 315 316 318 316 312 315 316 317 317 317 316 316 317 318 318 318 316 317 318 319 322 322 324 325 325 328 336 336 334 333
326 325 324 322 319 318 316 314 315 318 317 314 314 314 314 314 313 312 313 316 317 318 317 318 318 320 321 322 322 325 329 329 329 334 337 336 334 334
326 324 323 320 320 318 316 315 317 317 315 312 312 311 310 309 310 309 310 316 318 318 317 317 318 323 324 325 325 327 329 332 332 335 338 337 335 336
324 322 320 320 319 317 316 317 316 315 312 311 310 309 309 308 308 307 313 317 318 317 317 319 320 324 325 326 326 329 331 336 333 336 338 338 338 338
321 321 320 318 317 315 317 316 314 311 310 309 308 307 306 305 305 308 315 318 318 317 316 319 320 324 325 327 329 330 335 336 336 336 337 338 338 338
320 318 317 316 315 315 314 313 310 310 309 306 304 303 303 303 304 308 313 316 318 318 316 316 318 319 322 325 327 331 333 337 335 336 337 338 338 338
316 315 315 314 313 313 311 310 309 309 308 304 300 301 301 302 303 307 313 317 318 317 316 316 316 318 317 318 320 323 328 333 335 331 333 337 337 338
314 313 312 311 311 309 309 309 309 308 306 300 300 301 301 301 303 305 310 315 317 317 317 317 316 316 317 317 317 318 322 331 334 335 335 333 336 337
308 309 310 310 309 309 309 309 308 305 299 298 300 300 300 300 302 303 306 311 313 316 318 318 316 317 317 316 317 318 318 318 326 332 334 334 336 337
306 307 308 308 308 307 306 305 301 297 298 299 299 299 298 300 301 302 304 307 310 314 316 318 317 318 318 316 316 315 316 315 319 326 332 334 336 337
306 306 307 306 305 303 300 298 296 297 297 297 298 298 298 299 300 301 302 305 307 310 315 316 317 317 318 317 316 316 317 315 313 319 324 329 330 336

GFSNE_850_thetae_015.txt.gz
Theta_e
336 335 334 333 331 331 332 332 332 332 331 332 331 330 329 329 329 328 329 329 328 325 321 321 321 318 317 317 317 317 317 318 318 318 319 321 331 333
334 333 334 332 332 332 331 332 332 331 331 330 331 329 329 330 329 329 328 328 328 328 326 325 324 320 318 317 317 317 317 317 318 318 318 318 319 327
335 333 334 335 333 332 331 331 330 329 330 328 329 329 328 329 328 329 330 328 329 328 327 327 326 323 319 316 316 317 317 316 317 318 317 318 318 319
334 333 335 333 334 334 333 332 331 329 329 328 329 329 328 328 328 326 328 328 327 326 325 324 324 324 324 322 317 314 315 316 317 317 317 317 317 318
334 334 334 334 333 333 333 332 330 329 331 329 328 326 327 326 327 326 326 328 326 327 326 325 325 325 324 322 320 320 322 321 320 319 318 317 318 318
333 334 335 334 334 334 334 333 332 330 330 329 327 327 327 325 327 327 325 326 325 325 325 324 324 323 323 320 320 323 324 323 323 322 322 320 319 318
332 334 335 333 333 334 333 331 331 330 329 327 326 326 325 326 327 327 326 325 323 324 323 323 322 321 320 322 324 324 324 324 323 322 322 321 320 319
333 334 334 334 333 331 330 328 328 327 327 329 328 326 326 326 326 326 326 324 322 322 321 320 319 321 322 322 323 322 322 321 321 321 321 321 320 319
333 334 335 335 334 333 331 329 326 326 327 327 326 326 327 324 324 323 323 322 320 318 319 320 321 322 321 324 323 321 321 321 319 319 319 319 319 319
329 333 335 334 328 329 329 328 327 330 328 328 326 325 325 324 322 319 316 316 318 320 321 322 321 321 320 323 321 319 318 318 319 319 319 320 320 320
329 331 333 330 329 328 329 322 326 325 328 325 324 324 323 319 319 318 319 319 319 321 321 320 321 320 319 320 319 318 319 319 319 319 321 321 321 320
331 323 330 329 327 328 326 325 324 327 326 326 326 324 321 322 319 318 319 320 319 319 318 318 317 318 320 319 318 317 318 319 319 321 323 323 322 322
331 324 329 327 328 325 323 324 323 323 322 320 321 321 322 321 318 318 319 319 317 317 316 315 317 319 320 318 317 318 319 321 322 324 325 324 324 324
328 325 327 328 328 327 326 324 322 320 319 320 321 321 320 317 316 316 316 314 313 313 313 317 319 320 319 317 317 318 319 322 325 326 326 327 327 325
328 330 329 329 327 326 323 321 320 320 320 321 320 318 315 315 314 314 313 311 310 311 317 318 320 318 319 317 317 317 318 319 324 326 328 330 329 327
327 327 327 326 325 322 321 320 320 320 321 319 316 315 314 313 312 311 310 309 309 315 318 318 319 318 319 316 316 317 318 316 319 323 329 331 331 329
329 329 326 325 325 324 323 322 321 320 319 317 315 313 312 311 310 309 308 309 311 315 317 318 318 318 317 316 316 316 316 315 319 325 331 333 332 330
327 327 325 324 323 322 321 321 320 319 317 315 313 312 311 309 308 307 308 309 311 313 315 318 318 317 316 316 315 315 313 313 316 323 329 333 332 333
322 322 322 322 322 321 321 320 318 316 314 313 311 310 309 308 307 307 307 308 310 312 314 316 317 316 315 314 315 314 312 312 314 320 327 330 331 334
319 320 321 321 320 319 318 316 314 314 312 310 308 307 307 307 306 307 307 307 307 311 314 315 316 316 315 314 313 313 312 311 312 316 323 330 332 335
320 319 318 317 316 315 314 313 313 311 309 306 307 306 306 306 306 306 306 306 306 308 311 314 315 315 314 315 313 313 311 312 312 311 314 326 331 334
318 317 316 315 314 313 313 312 310 307 306 306 306 305 305 305 305 305 305 305 306 306 308 313 315 314 314 314 313 313 312 312 313 312 312 312 314 325
317 316 315 313 312 312 310 308 306 305 305 305 305 304 304 304 305 304 305 305 305 305 305 310 313 312 313 313 312 312 312 312 309 311 314 312 314 318

GFSNE_850_thetae_021.txt.gz
Theta_e
326 321 326 334 333 332 331 332 331 331 329 328 330 331 330 331 329 329 329 330 329 326 324 325 326 327 327 326 324 323 321 318 317 317 317 316 316 316
325 323 327 324 332 331 332 331 331 330 330 330 332 329 329 330 328 328 327 326 327 326 325 326 326 327 326 325 324 323 323 321 319 317 316 315 316 316
329 330 328 326 325 331 332 332 332 332 330 331 330 328 327 327 328 327 325 325 326 326 327 326 325 326 326 327 326 325 324 324 323 321 318 317 316 314
333 332 331 328 322 319 327 331 329 329 330 329 330 329 330 327 325 326 326 325 326 326 327 326 325 325 325 325 326 326 325 324 323 322 320 320 322 320
327 332 328 326 323 322 332 330 331 333 333 330 329 330 328 328 329 328 326 326 327 329 327 326 324 325 325 324 324 323 324 323 323 322 321 323 322 323
327 332 330 328 324 326 332 332 331 331 331 330 331 331 328 330 328 327 328 327 325 323 324 324 324 323 323 323 322 322 322 322 321 320 320 322 324 324
329 329 332 332 331 332 332 332 332 330 329 330 330 329 327 327 326 326 326 323 321 322 322 320 318 317 317 316 317 315 314 313 314 320 322 323 323 323
328 329 330 333 330 331 324 331 331 331 329 327 329 329 328 321 322 325 324 321 321 317 318 317 316 316 317 318 317 318 320 319 320 321 323 323 322 322
329 328 328 334 333 325 328 330 332 331 326 327 328 327 321 324 326 326 323 323 323 319 317 318 318 320 319 318 319 320 320 320 321 321 321 320 319 319
329 328 327 328 333 324 329 331 331 327 326 327 328 322 325 324 326 326 324 322 321 320 318 318 319 320 319 319 319 317 316 315 315 316 317 317 317 317
330 330 330 330 330 325 328 327 327 327 328 327 326 323 323 324 325 325 324 321 322 321 320 320 319 319 318 312 311 315 317 318 318 318 318 317 316 316
331 330 331 329 328 326 328 326 327 328 327 325 323 323 323 323 323 320 321 321 322 321 317 315 312 311 311 310 314 316 318 317 317 316 315 317 316 317
331 332 332 327 324 326 330 327 326 327 324 324 324 323 321 319 321 321 320 317 315 314 313 312 310 310 309 314 316 316 317 317 315 315 315 315 316 317
337 335 330 328 327 330 326 327 327 327 325 322 319 319 319 321 319 315 315 314 313 312 310 309 309 310 312 316 316 315 315 315 314 314 313 313 313 313
334 331 327 329 328 324 327 327 326 323 321 321 320 319 320 319 318 315 314 312 311 310 309 310 310 312 315 315 315 314 315 314 314 313 313 312 312 312
332 326 329 327 324 326 325 324 322 322 322 321 319 319 318 317 316 314 311 310 308 308 307 309 310 310 313 314 314 313 314 313 313 312 311 311 311 313
328 329 327 326 326 326 326 325 324 323 322 321 319 320 318 316 315 311 308 307 307 307 307 306 310 311 313 314 313 312 313 312 312 310 309 309 310 312
328 326 325 325 326 325 324 324 324 322 322 319 319 319 315 312 311 308 307 306 307 306 306 306 308 307 311 311 312 313 312 311 310 309 308 307 309 313
326 327 326 326 324 323 322 321 320 319 320 322 316 313 313 311 308 307 306 306 306 306 305 307 306 305 307 312 312 312 312 311 309 308 307 306 307 312
326 325 321 322 321 320 320 319 318 316 315 314 313 312 311 307 307 306 306 306 305 305 306 307 305 305 307 312 310 310 311 309 308 306 305 304 307 311
323 323 322 320 319 318 318 317 316 316 315 314 309 306 307 306 305 305 305 305 305 305 306 306 305 306 312 311 308 310 310 309 307 305 303 303 305 309
322 322 319 319 318 317 316 314 314 314 312 307 306 306 305 305 305 305 305 305 305 305 305 305 305 308 312 308 307 310 309 309 309 304 302 303 303 303
320 319 319 318 317 314 311 311 308 308 306 306 306 305 305 304 304 305 305 305 305 305 305 304 305 309 311 307 305 309 308 308 307 304 301 303 304 306

GFSNE_850_thetae_024.txt.gz
Theta_e
318 326 333 332 333 331 331 331 332 331 330 328 330 330 331 330 331 330 328 329 328 326 326 325 324 325 326 327 327 326 324 323 321 320 318 317 316 316
325 324 324 332 334 333 332 331 331 330 328 329 331 330 329 329 329 328 327 327 326 325 327 327 327 325 325 326 326 326 326 325 324 323 322 321 318 316
327 330 326 327 329 333 332 331 331 331 332 331 331 330 329 328 328 327 325 325 326 325 326 325 328 326 326 325 324 325 325 325 325 324 323 322 320 319
328 330 330 328 329 329 330 331 332 331 331 330 329 329 330 329 330 326 327 328 328 326 326 327 328 327 325 325 325 325 325 325 325 324 324 324 323 320
326 332 330 332 332 332 330 327 330 332 331 332 332 329 328 328 328 329 328 327 328 327 327 325 323 323 324 325 325 324 323 323 323 323 323 322 322 320
322 331 330 333 333 331 331 328 332 330 328 330 329 330 329 329 328 328 327 327 325 323 320 321 322 322 321 322 319 318 319 321 321 321 321 321 319 317
327 326 328 329 332 334 330 331 332 326 325 331 326 329 327 328 328 326 322 325 322 320 320 318 318 317 316 315 315 317 318 319 319 320 321 321 321 322
335 325 327 329 329 334 332 332 327 324 330 332 328 327 326 327 327 322 326 324 322 319 320 320 318 318 318 318 317 317 317 319 320 321 321 321 320 320
340 333 327 329 329 332 333 332 328 327 329 331 325 326 327 328 323 325 324 324 325 323 320 320 319 319 318 317 317 317 316 313 314 317 317 317 316 315
343 338 331 329 329 329 331 333 328 326 329 325 327 328 328 325 325 324 325 324 323 322 321 322 321 319 316 315 312 310 309 314 316 317 318 318 317 317
344 338 334 328 328 329 331 331 325 328 327 328 329 328 327 323 323 324 323 321 321 321 320 318 315 314 312 311 310 309 314 314 316 317 316 316 316 315
343 339 334 329 330 329 331 328 327 327 326 327 327 324 324 324 323 322 319 322 321 316 315 313 313 311 309 309 309 311 315 314 314 314 315 315 314 314
340 337 332 331 331 331 330 328 327 329 326 327 325 323 320 319 319 320 320 317 314 314 313 311 310 309 309 311 313 313 314 313 313 313 314 314 313 312
335 334 331 332 332 330 327 326 327 327 327 326 322 320 319 318 320 319 318 317 315 312 311 309 308 309 310 312 313 314 313 312 312 312 313 313 312 311
336 336 334 331 328 328 329 326 326 327 325 321 321 320 319 318 318 317 316 315 312 310 307 307 307 309 308 310 312 313 313 312 312 313 312 311 311 311
337 334 332 329 327 329 327 325 326 325 322 321 321 321 319 319 318 316 315 312 307 307 307 306 306 306 308 307 310 312 311 312 312 312 311 311 310 309
335 334 331 328 328 326 325 325 325 323 323 323 322 319 319 319 318 315 310 307 307 306 306 305 305 306 307 305 307 309 311 308 310 311 310 309 309 307
331 329 328 327 327 326 325 323 324 325 323 321 321 319 318 316 313 311 308 306 306 305 305 305 306 307 305 305 308 311 308 309 310 309 308 306 305 305
328 328 326 325 325 325 323 322 321 321 321 320 322 322 317 313 311 309 306 306 305 305 305 305 306 305 305 308 311 310 307 309 309 308 307 305 304 303
325 325 326 327 325 323 322 320 320 319 318 317 318 318 313 311 307 306 305 305 305 304 305 305 305 304 306 311 311 308 305 308 307 307 305 303 302 302
325 323 321 320 321 320 319 318 316 316 315 314 314 310 306 306 305 305 304 304 304 305 305 305 304 305 307 311 309 304 303 308 308 306 303 301 300 300
322 322 322 321 318 317 317 316 314 312 313 312 307 306 306 305 304 304 304 304 305 304 304 304 304 305 306 309 305 302 306 307 308 307 302 300 299 299
322 321 320 318 318 318 317 315 309 308 306 306 305 306 305 305 304 304 304 305 304 304 304 304 304 304 304 304 303 301 305 307 307 306 304 300 299 299

GFSNE_850_thetae_027.txt.gz
Theta_e
320 326 331 334 333 333 332 331 330 331 331 329 329 330 331 331 330 329 328 328 328 326 326 326 327 326 325 326 327 326 326 325 324 323 322 320 319 318
319 320 320 324 333 334 332 331 331 331 330 329 329 331 330 329 328 328 327 328 327 326 325 325 326 326 327 326 325 324 325 326 325 325 324 323 322 322
320 323 324 325 326 331 333 332 331 331 331 331 331 331 331 329 329 329 328 326 327 327 327 326 326 326 328 327 326 324 324 324 325 325 325 325 324 323
321 325 329 328 326 330 330 332 332 332 331 331 331 330 330 330 329 329 329 328 328 328 328 327 327 328 327 326 324 325 325 325 325 324 324 325 324 323
323 321 328 330 330 330 330 331 331 329 331 332 330 331 331 330 329 329 328 328 328 327 326 326 322 321 321 323 323 322 323 323 320 319 322 323 323 323
336 327 322 330 329 331 333 333 332 331 333 332 328 328 330 328 328 327 327 328 326 323 323 320 320 319 318 317 317 316 316 315 315 315 316 319 321 321
342 338 329 326 329 329 332 334 332 330 333 330 325 324 330 327 327 327 327 321 322 322 321 319 318 319 318 317 317 316 316 317 318 318 319 320 320 318
344 341 337 330 329 329 329 333 333 332 332 329 324 327 330 328 326 327 324 322 326 323 323 322 321 320 320 319 318 316 315 314 313 312 315 318 319 319
346 343 341 339 329 329 329 330 333 333 330 328 328 329 328 326 327 328 325 327 324 324 324 322 321 320 320 319 316 315 313 311 309 308 313 313 313 314
347 345 344 342 336 327 329 328 331 332 332 328 328 327 328 328 328 327 325 324 324 323 320 321 320 319 316 315 313 312 310 309 312 314 315 317 316 316
350 348 346 342 338 332 329 329 329 329 329 326 327 327 327 327 326 324 324 325 322 320 321 317 315 315 314 312 310 309 310 310 314 314 313 313 313 314
352 348 343 343 338 333 330 329 329 331 326 328 327 326 326 324 323 321 321 319 320 317 317 314 314 311 309 309 309 310 310 311 313 312 312 311 311 313
351 343 340 340 336 331 330 331 330 330 328 328 328 327 325 320 319 318 319 319 317 316 315 312 311 309 308 308 309 309 309 310 312 312 311 310 312 312
346 341 339 338 336 332 334 332 330 328 326 327 326 326 320 319 318 318 319 317 316 315 313 309 307 307 307 307 306 307 306 309 311 311 310 307 309 309
342 337 334 332 331 332 332 330 328 327 326 327 325 321 320 319 319 318 317 317 316 313 308 306 306 306 306 305 306 306 305 307 309 310 307 307 309 309
335 335 335 335 332 329 328 328 328 326 326 325 321 321 320 320 319 318 318 316 312 307 306 306 305 305 305 306 306 305 305 309 310 306 304 307 308 308
336 336 337 332 329 327 328 326 324 324 323 322 322 322 321 319 318 318 315 311 309 306 305 305 305 305 306 305 305 305 310 310 306 304 307 308 308 308
336 337 336 332 328 328 326 325 325 323 323 324 323 321 321 319 318 314 311 309 306 305 305 304 305 305 305 304 305 308 309 306 303 306 307 307 308 306
337 336 330 328 326 326 325 324 322 322 321 321 321 320 321 321 317 313 310 306 305 304 304 304 305 304 304 304 306 307 307 303 304 306 306 307 305 303
330 328 327 325 324 324 324 322 321 320 319 318 318 317 318 318 314 309 306 305 304 304 304 304 304 304 304 306 307 305 304 301 305 306 307 306 303 301
325 324 324 325 325 322 320 320 319 318 316 315 315 315 314 311 306 305 304 304 304 304 304 304 304 304 304 305 305 304 302 300 305 306 306 301 301 299
324 324 324 322 320 320 320 318 317 316 313 311 311 311 307 306 305 305 304 303 304 304 304 304 304 304 303 303 303 302 301 299 306 306 305 301 300 299
323 322 322 321 320 319 317 317 315 311 308 306 307 306 305 305 305 304 303 303 304 304 303 303 303 304 303 302 302 301 298 302 305 306 306 303 300 299

GFSNE_850_thetae_030.txt.gz
Theta_e
323 323 328 333 334 333 332 331 331 330 330 331 329 329 329 330 331 330 330 328 328 327 326 325 325 326 326 326 325 324 324 325 325 325 324 323 322 321
321 320 321 325 327 332 332 332 331 331 330 330 329 329 331 329 328 328 328 328 327 326 326 326 326 325 325 325 327 326 325 324 323 325 325 325 323 323
323 320 321 321 321 324 332 334 333 331 331 331 331 331 330 330 329 329 330 329 328 327 328 328 328 327 325 326 327 327 327 325 324 324 324 325 325 325
321 322 321 326 327 326 325 330 332 332 332 331 331 331 330 330 330 328 329 329 328 328 328 328 327 327 326 325 325 324 322 322 323 323 324 324 324 324
337 325 322 324 329 329 327 330 331 331 331 328 331 331 330 331 329 328 328 326 327 328 328 327 324 322 320 320 320 319 318 317 317 316 317 319 318 319
343 341 332 324 324 330 330 330 331 331 331 332 332 333 329 328 329 329 327 327 326 321 322 324 321 320 318 318 318 317 316 316 316 316 316 316 315 316
344 344 342 335 328 327 332 331 333 333 331 330 332 332 329 324 326 330 328 326 326 321 323 322 321 322 321 319 319 319 318 316 317 315 316 317 319 319
345 345 344 341 337 331 329 331 330 332 333 331 331 332 326 326 329 326 326 327 326 323 322 320 322 321 320 319 320 320 317 315 315 314 311 309 309 311
348 347 347 343 342 339 333 331 332 330 332 332 332 330 327 327 327 328 328 327 325 323 324 322 321 319 319 319 317 316 315 312 311 310 308 313 314 316
348 348 348 346 344 343 339 333 332 329 331 332 331 329 327 328 328 328 327 326 323 323 324 320 320 319 316 316 316 313 309 308 308 308 310 313 313 312
347 352 350 347 345 343 340 336 329 329 330 330 330 326 327 327 327 326 324 323 323 321 319 319 316 315 314 314 311 308 308 309 309 311 312 313 312 311
348 353 352 349 345 344 341 338 332 329 329 330 327 328 328 326 326 322 319 318 319 319 317 315 314 312 310 309 307 307 307 307 309 310 311 312 312 311
351 353 353 348 341 340 339 337 331 329 330 331 328 328 327 327 322 318 318 318 318 317 315 314 313 309 307 307 306 306 306 306 305 306 310 310 310 310
353 353 349 343 340 339 338 333 331 332 331 329 325 326 326 323 320 319 318 318 317 317 315 311 307 306 306 306 305 305 306 306 304 305 308 310 310 307
353 352 345 341 339 336 336 332 333 332 331 327 327 327 325 320 319 319 318 318 317 316 312 307 306 306 305 305 305 305 305 305 304 309 310 306 303 301
350 345 341 338 334 332 331 331 331 330 328 326 325 326 322 320 320 319 318 318 317 313 310 306 305 305 304 305 305 305 304 305 309 309 304 302 300 301
343 339 335 333 334 333 333 330 328 328 327 325 325 323 321 321 321 318 318 316 313 310 306 305 304 304 304 305 304 304 305 308 307 303 301 300 302 306
338 335 334 333 333 330 327 328 326 325 324 323 323 322 322 322 320 319 318 313 310 306 304 304 304 304 304 304 303 305 305 306 304 301 300 304 307 307
336 335 334 334 331 328 327 327 326 324 323 322 322 322 321 320 320 320 314 310 306 304 304 304 304 304 304 304 303 304 306 305 301 299 304 306 306 306
336 336 334 334 330 328 326 325 325 323 321 320 319 318 317 318 318 314 308 305 304 303 303 304 304 304 304 304 303 302 303 302 299 303 305 306 305 304
338 336 333 329 327 324 324 324 323 321 320 319 317 315 315 315 313 307 305 304 303 303 303 304 304 303 303 303 303 302 300 299 299 304 305 305 303 302
331 329 327 326 325 324 324 321 320 319 318 317 314 312 313 311 307 305 304 303 302 303 303 304 303 303 303 303 302 301 300 298 297 301 306 304 302 301
323 322 322 324 325 322 321 319 317 317 315 312 308 307 307 306 305 304 303 302 302 303 303 303 303 302 303 302 301 301 299 298 296 299 305 305 305 303

GFSNE_850_thetae_033.txt.gz
Theta_e
325 323 327 331 331 332 332 332 333 332 332 332 331 329 329 329 330 330 330 330 329 328 328 326 324 325 324 324 325 325 325 325 324 324 324 325 325 324
326 324 322 322 327 329 332 332 331 332 332 332 331 329 328 330 330 329 328 328 329 328 326 325 325 326 327 327 326 325 326 327 326 325 324 323 324 325
324 323 321 320 322 324 325 328 331 332 333 333 331 330 331 330 330 329 329 329 329 328 328 328 328 328 328 326 325 325 326 326 326 323 322 323 323 324
323 322 322 321 322 323 324 324 328 331 333 334 334 331 331 330 330 330 329 329 329 330 328 328 328 327 327 325 323 320 320 319 319 319 319 320 321 323
332 326 322 322 321 325 328 328 325 329 330 334 333 329 331 331 331 330 329 328 328 327 327 327 326 322 321 319 319 318 317 317 317 316 316 315 315 315
339 341 340 332 325 323 327 330 329 329 330 332 334 335 332 333 330 328 329 327 329 327 327 324 322 323 321 320 320 319 318 318 318 317 316 315 314 314
342 343 343 342 339 329 325 328 331 331 332 334 335 334 333 333 332 329 330 329 328 326 327 327 326 325 325 324 322 320 319 320 320 317 316 315 315 314
342 342 344 344 343 339 332 329 330 333 332 335 335 334 334 332 330 331 329 327 329 330 326 327 327 325 326 325 322 319 318 316 315 314 314 313 311 309
346 345 345 345 345 344 341 338 331 332 333 330 333 333 333 330 329 326 328 329 330 329 324 326 327 326 323 322 318 317 316 315 312 310 309 309 310 313
347 348 348 348 347 346 344 341 337 332 333 331 331 332 331 330 327 328 327 327 325 326 324 325 323 323 320 319 317 314 312 308 307 308 310 311 310 313
347 347 349 349 348 348 345 343 340 337 334 330 331 332 331 327 327 327 326 328 327 325 323 322 320 319 317 316 314 310 306 306 307 307 306 309 311 312
343 345 346 349 348 350 346 343 341 339 334 329 331 330 327 326 328 326 327 326 323 322 321 318 318 317 315 311 312 311 309 309 306 306 305 305 309 311
342 342 343 347 349 350 346 344 342 340 332 331 330 330 328 327 328 327 322 318 322 321 320 317 317 315 312 311 310 310 309 309 309 309 309 308 306 307
347 344 342 345 351 349 346 344 343 339 332 331 330 330 328 326 326 324 319 319 318 318 317 317 314 312 310 308 308 307 308 308 309 309 310 312 310 308
351 347 345 348 351 346 341 340 338 334 332 331 331 330 326 327 325 320 319 319 318 318 317 315 311 308 308 308 307 307 307 307 308 311 311 310 308 307
351 350 349 349 344 343 341 338 335 332 332 332 332 328 326 326 322 320 319 318 317 317 315 313 309 305 306 306 307 307 307 307 309 311 310 307 306 306
342 339 343 343 340 340 337 337 334 333 332 331 329 326 325 326 321 320 320 319 318 317 314 310 307 303 304 304 306 306 306 308 310 309 307 305 305 307
333 333 331 335 340 338 333 332 332 331 329 328 326 325 326 322 321 321 320 319 317 314 311 307 306 306 307 308 307 306 306 307 308 306 305 304 306 307
337 332 330 337 336 333 334 333 330 328 328 325 324 323 323 322 322 321 320 319 315 311 308 306 306 306 307 306 306 306 307 306 305 303 303 305 306 308
334 331 331 336 334 334 331 327 328 326 324 324 323 322 321 319 319 318 317 314 311 308 306 306 307 307 306 306 306 307 305 305 303 302 302 304 307 306
333 331 337 335 334 331 329 328 327 325 324 322 321 319 318 317 317 315 313 310 306 306 306 306 307 304 303 305 307 305 305 303 299 298 300 305 306 304
333 337 336 335 333 333 329 326 325 324 322 320 319 318 316 315 313 311 309 307 306 306 306 306 305 304 307 306 305 305 304 303 301 300 301 304 304 302
338 336 337 336 331 329 325 324 323 321 320 318 318 315 312 311 309 308 307 306 305 305 305 305 305 306 305 305 305 304 303 302 300 300 302 303 304 304

GFSNE_850_thetae_036.txt.gz
Theta_e
327 322 327 338 338 337 336 335 334 335 335 336 333 334 334 335 335 330 331 334 331 330 329 328 327 325 325 326 325 325 325 325 326 327 326 325 324 324
329 326 322 336 338 337 337 336 335 334 333 334 335 334 334 334 334 329 335 330 328 328 329 328 326 325 326 327 327 327 324 323 324 326 326 326 324 322
325 326 322 325 336 337 337 337 336 335 334 333 335 335 331 330 334 332 333 333 334 332 329 328 328 328 328 328 328 327 325 322 321 321 321 320 320 321
328 326 323 325 321 328 338 336 336 336 335 336 336 336 335 335 336 332 334 333 333 332 330 328 327 328 328 325 322 320 318 317 317 317 317 317 316 316
335 328 325 323 322 331 330 336 338 337 336 335 335 337 335 336 336 334 336 334 333 331 329 328 327 326 324 321 320 319 319 318 317 318 318 318 316 316
338 332 327 326 322 322 323 323 336 336 338 337 336 335 336 336 336 334 334 334 333 333 331 328 328 327 323 321 320 321 321 320 319 319 319 319 317 316
340 332 329 335 338 337 329 328 334 335 336 337 337 336 336 335 335 335 334 333 333 334 332 332 330 331 328 327 327 327 325 321 320 320 319 316 315 315
342 337 338 340 341 342 341 334 331 328 329 336 337 336 336 336 335 334 333 334 332 331 334 332 330 329 329 328 326 325 323 318 316 316 315 314 312 312
340 342 345 347 342 343 344 342 336 333 330 338 338 337 337 338 336 336 335 333 332 332 331 331 329 328 327 325 323 321 319 317 315 314 311 308 308 308
345 343 345 346 345 343 344 345 343 340 339 333 338 339 338 338 337 335 334 331 331 332 330 330 327 323 323 322 320 318 317 310 307 305 306 307 307 308
342 343 344 344 346 347 347 346 345 343 341 338 332 336 332 336 334 334 333 333 331 330 328 328 324 321 321 320 317 315 313 311 309 306 305 305 305 304
344 345 343 343 344 347 348 348 346 346 343 341 335 334 332 334 332 328 332 331 331 328 326 324 320 320 319 318 315 314 313 312 310 310 310 310 309 309
348 347 347 342 342 344 347 349 349 346 344 342 340 334 332 334 331 326 328 331 328 325 324 323 320 319 318 316 314 311 311 310 310 311 311 311 311 311
348 346 348 348 344 342 346 349 348 345 344 343 338 335 335 335 334 333 329 327 325 320 323 319 319 318 317 315 311 310 310 310 310 310 310 311 312 313
349 352 352 351 348 346 348 348 347 342 342 340 335 336 334 334 332 331 328 321 319 318 317 318 318 317 314 311 309 309 310 310 310 309 310 312 313 312
350 353 352 351 349 347 347 346 343 336 339 337 336 335 334 333 332 329 326 323 322 321 321 318 315 312 311 309 309 309 309 309 309 309 312 312 311 309
351 351 351 350 347 346 341 342 335 334 337 337 335 335 334 331 329 327 325 324 323 321 320 319 315 311 309 308 310 310 310 309 309 309 310 309 308 307
351 347 346 344 343 341 339 337 335 337 336 335 335 334 333 330 328 326 325 324 323 321 319 316 312 310 309 310 310 310 309 309 309 309 308 307 305 306
351 345 337 332 335 332 333 332 333 334 335 335 334 333 331 329 327 326 325 324 321 319 316 313 310 309 309 310 309 309 308 309 308 308 306 305 305 305
345 341 337 337 335 334 333 334 336 333 335 334 332 331 329 327 326 325 324 321 319 316 313 311 309 310 310 309 308 308 309 308 307 306 304 304 304 305
336 337 337 335 333 331 334 335 333 334 334 332 330 328 327 326 325 322 321 319 316 313 311 309 310 309 308 307 310 310 308 307 306 304 303 303 304 307
336 337 336 334 333 334 334 334 333 331 330 329 328 327 325 324 322 321 318 315 311 309 309 309 309 309 309 308 308 308 308 307 306 304 302 303 304 304
334 334 336 337 335 334 333 332 331 329 329 328 326 325 324 322 320 317 314 311 310 310 309 309 308 309 309 309 308 308 308 307 305 303 303 303 302 303

GFSNE_850_thetae_042.txt.gz
Theta_e
332 325 336 342 341 339 338 337 337 338 338 338 336 337 336 336 336 336 336 335 334 336 333 331 329 329 328 328 327 326 326 327 327 327 326 325 325 325
340 329 325 333 341 341 339 338 337 336 336 339 338 337 336 336 336 337 336 334 337 332 330 330 331 328 328 328 328 328 328 328 328 326 321 319 318 317
346 337 330 329 333 341 340 339 338 337 336 334 338 337 337 336 335 333 334 332 334 335 335 334 334 332 329 328 327 327 328 327 323 319 317 317 317 317
347 342 339 332 329 335 341 340 338 338 338 337 336 339 339 339 338 335 331 336 338 336 335 334 333 332 330 327 328 327 325 321 320 318 318 318 318 317
351 345 338 334 328 325 331 339 340 339 338 338 337 337 338 338 339 338 336 336 334 334 335 335 333 333 330 330 328 327 328 327 327 326 325 325 321 317
354 350 339 336 330 327 325 324 332 341 338 337 337 336 337 339 339 338 337 337 337 338 337 335 334 333 332 331 330 329 328 328 327 326 325 322 319 317
339 346 337 331 333 334 330 327 325 330 340 340 339 339 338 338 338 338 338 337 337 336 336 334 335 334 333 331 331 330 329 328 325 323 321 319 316 316
340 336 339 335 333 335 337 333 328 325 325 331 339 339 340 340 339 338 337 337 337 336 335 335 333 332 332 332 331 326 325 323 321 320 316 312 308 306
346 339 339 341 341 338 339 340 334 329 330 334 333 337 339 339 340 340 339 338 336 335 335 335 333 334 332 329 326 325 323 322 321 316 312 309 306 305
348 346 342 340 343 341 337 341 339 336 332 337 338 338 338 339 340 340 340 339 337 333 333 333 331 330 331 329 325 323 322 321 318 314 312 311 311 310
348 348 347 346 342 347 346 334 336 339 338 336 339 340 340 340 336 337 340 339 337 332 331 333 332 330 330 326 322 322 321 319 316 313 312 312 311 311
352 348 349 349 351 350 350 349 345 338 339 340 341 340 340 341 338 338 340 337 334 334 332 333 333 330 327 324 321 320 319 318 314 312 312 312 311 312
356 355 353 352 355 355 354 352 346 346 341 341 342 342 341 340 338 336 338 338 334 335 333 331 331 329 327 322 321 320 319 316 313 312 312 312 311 311
359 357 356 356 354 354 355 355 354 353 351 348 347 346 345 344 343 340 337 336 334 331 332 332 331 327 325 322 320 319 317 315 311 311 312 311 311 313
362 360 357 358 356 356 356 355 355 356 353 351 349 348 347 346 342 336 336 337 335 332 332 331 331 327 323 318 319 316 315 311 311 311 311 311 311 311
363 361 361 359 356 357 356 357 357 356 355 353 351 345 347 345 339 335 334 335 334 333 332 330 329 324 319 320 317 313 312 311 311 312 312 311 310 309
362 361 361 360 360 357 354 355 354 356 354 353 351 348 349 345 337 335 334 335 335 333 332 329 325 323 322 320 312 310 311 313 313 312 311 310 310 309
358 360 359 359 359 357 356 356 353 353 354 352 349 347 348 344 337 334 334 335 335 333 328 326 325 324 322 318 314 312 312 313 312 311 309 310 309 307
356 355 357 358 358 359 358 356 355 353 352 351 348 346 346 339 336 334 336 335 333 330 326 326 324 323 320 319 314 313 312 313 310 309 310 309 306 304
355 355 353 353 353 354 353 353 350 348 349 348 347 343 344 337 337 335 335 333 330 327 327 326 324 322 319 317 313 314 312 311 311 310 309 307 305 304
350 351 347 347 344 344 342 342 343 341 341 340 338 337 336 336 335 335 333 331 329 327 327 325 323 322 319 314 312 312 311 312 310 310 309 307 306 305
340 338 338 336 334 335 338 338 334 338 336 332 332 336 336 336 335 334 332 330 328 327 326 323 320 317 314 313 312 310 312 311 311 310 308 307 306 304
330 331 332 332 330 333 334 334 334 335 332 335 335 336 335 335 333 331 330 330 328 326 322 320 317 314 313 311 310 312 312 311 310 309 308 307 306 304

GFSNE_850_thetae_045.txt.gz
Theta_e
332 330 336 338 338 338 337 338 337 338 339 340 338 338 337 337 336 336 336 335 333 332 332 332 331 329 328 328 328 327 328 327 327 328 327 323 319 318
338 335 327 338 340 339 337 334 336 337 337 336 338 337 336 336 336 336 336 336 332 330 330 331 333 333 332 329 328 328 327 327 327 327 322 318 317 317
348 342 335 328 340 341 341 338 335 333 333 335 336 338 337 336 336 335 335 335 333 333 335 335 334 333 332 330 329 328 327 327 325 321 318 318 319 320
344 346 340 334 330 336 340 340 339 336 334 331 333 337 338 337 337 337 338 335 329 334 336 336 334 333 332 330 329 327 325 323 322 323 325 324 324 323
341 344 344 345 334 331 333 338 339 339 337 336 334 336 339 338 337 338 338 336 333 331 333 333 334 333 332 331 330 328 328 327 327 327 326 325 323 319
337 335 337 345 340 336 329 329 338 339 338 337 335 336 336 338 339 338 338 337 335 335 335 336 335 334 332 332 330 330 329 328 328 327 324 320 318 314
343 337 333 330 331 333 335 330 327 337 337 336 337 336 335 334 335 336 339 337 337 336 336 335 336 334 334 333 329 331 331 330 327 323 321 317 313 309
345 344 342 336 334 332 330 330 332 330 327 333 329 332 331 332 335 337 338 338 338 337 336 335 335 334 333 331 332 332 328 325 324 321 317 313 309 307
344 342 341 343 341 337 335 334 333 335 335 332 327 326 327 329 335 339 338 339 338 337 337 335 335 335 332 333 331 328 326 324 322 319 315 312 310 310
343 343 344 343 343 342 340 339 343 343 339 342 337 330 326 328 334 338 340 340 338 338 336 336 335 334 330 331 330 329 321 321 321 317 314 312 311 311
348 346 346 347 346 347 348 347 344 341 341 345 342 342 332 333 333 340 342 341 339 338 338 336 332 331 330 330 330 327 321 321 319 317 313 312 311 311
355 354 354 352 352 353 352 352 351 347 346 345 344 345 344 337 337 339 339 340 340 340 339 335 332 331 331 331 328 322 321 319 318 314 312 311 311 311
354 352 354 357 358 358 358 357 353 353 352 351 350 348 346 343 339 339 339 337 336 338 337 333 331 331 332 327 325 322 320 319 316 312 311 311 312 311
361 360 360 359 358 357 357 356 356 358 358 356 354 353 351 347 343 341 339 339 341 339 337 335 333 330 331 329 325 322 320 319 318 312 311 311 311 311
361 360 359 359 360 359 357 357 356 356 358 356 356 355 354 353 349 344 341 339 338 338 337 335 332 331 330 329 327 322 318 316 315 312 310 311 311 311
365 364 362 361 360 359 360 358 356 357 357 357 357 356 354 351 349 347 343 340 338 337 335 333 333 331 329 327 324 318 316 312 311 310 311 312 312 310
363 362 362 363 363 363 362 361 359 358 357 355 354 354 353 351 349 349 345 342 338 337 333 333 332 330 331 329 321 320 310 308 310 313 314 312 310 309
362 360 359 358 360 360 360 360 358 358 355 354 353 352 352 350 349 345 346 342 337 334 333 333 333 331 326 322 322 317 311 311 312 313 312 311 309 309
358 358 358 357 356 355 356 356 356 354 353 349 350 350 350 350 347 345 342 338 335 333 333 334 333 332 326 324 322 316 313 313 312 313 311 308 309 305
351 348 349 351 354 354 353 351 348 347 346 346 346 345 345 346 342 340 341 333 333 334 335 334 332 326 324 323 321 318 313 313 312 311 310 309 307 305
341 344 347 346 347 346 345 343 340 340 342 343 340 332 333 338 333 332 333 333 335 334 335 331 326 325 324 322 318 315 313 313 311 311 310 309 307 306
336 338 338 339 338 337 335 333 335 337 335 337 336 333 331 329 330 331 331 335 335 334 332 326 326 325 323 320 318 315 311 311 312 311 310 309 307 306
334 334 330 329 331 333 331 333 334 336 335 334 334 334 335 335 335 335 335 335 334 333 327 327 324 322 320 319 317 313 312 311 311 310 310 308 308 306

GFSNE_850_thetae_048.txt.gz
Theta_e
335 341 338 338 339 339 338 338 338 338 338 338 339 339 338 337 337 336 335 335 335 332 330 331 331 329 330 328 328 327 327 328 327 327 327 322 318 317
344 338 333 336 338 338 338 337 337 338 337 337 338 339 338 337 337 336 335 335 336 333 329 330 331 333 333 332 331 330 328 327 326 326 323 319 318 319
343 343 334 328 334 335 335 335 334 336 335 335 337 337 337 337 336 336 335 335 335 333 329 334 334 334 333 332 330 328 327 327 326 322 320 323 324 324
340 342 341 340 332 330 337 337 337 336 334 329 331 334 334 336 337 336 336 337 337 333 330 332 335 334 333 332 330 328 326 324 325 325 326 326 325 323
335 339 335 338 340 336 330 336 338 338 338 337 335 333 333 334 337 337 337 337 337 334 331 332 333 333 333 332 330 329 328 327 327 326 327 325 322 318
342 334 333 335 338 338 339 332 331 335 338 339 339 337 336 334 336 337 337 337 338 337 334 333 334 334 334 333 331 330 330 329 328 328 327 322 318 313
347 346 343 337 333 333 337 340 343 335 334 339 340 339 338 337 336 335 336 336 337 337 336 334 334 334 334 334 333 332 332 331 331 330 323 319 315 309
349 347 346 346 344 340 335 333 335 337 343 335 336 340 338 337 336 337 336 337 338 338 337 336 335 335 335 334 333 331 332 332 330 324 321 318 312 308
348 348 346 344 343 342 341 340 339 334 334 336 340 336 332 331 331 333 335 334 334 336 338 337 336 336 335 334 332 330 331 329 325 321 320 316 313 309
347 347 347 344 344 343 343 343 342 341 340 338 340 330 330 336 337 333 330 332 334 337 339 338 337 337 335 335 333 330 330 328 321 320 318 316 312 311
350 349 347 346 344 344 347 348 347 346 347 346 345 344 342 341 341 343 337 338 338 338 339 339 338 337 336 335 331 329 328 325 322 320 318 315 312 311
354 351 351 350 352 354 355 355 353 350 353 352 352 351 351 348 346 347 346 337 338 338 339 339 338 336 335 333 331 329 325 322 321 319 317 313 311 310
358 356 356 356 357 357 358 358 356 355 356 357 357 357 356 355 354 351 348 347 337 338 339 340 338 337 335 332 331 330 326 321 320 319 315 312 311 311
361 361 361 360 359 359 358 358 357 357 357 358 358 356 354 352 354 355 353 350 343 338 336 337 338 338 335 332 330 329 322 320 320 318 314 311 311 311
360 360 360 360 359 359 358 358 358 359 358 358 358 358 357 356 355 354 353 351 346 344 340 338 338 338 334 332 330 325 322 321 320 317 315 312 310 311
362 361 360 361 362 361 362 362 362 362 362 360 358 357 357 357 356 352 350 349 345 344 343 340 338 337 333 332 330 326 323 322 319 317 314 310 310 311
362 362 362 361 360 360 360 360 361 362 362 359 358 356 355 354 353 352 352 348 343 342 340 338 338 337 332 331 331 325 323 322 317 312 310 310 312 312
361 361 361 362 361 360 359 357 355 354 354 355 355 353 351 350 349 350 349 348 344 343 340 339 336 334 333 330 326 325 323 319 311 310 311 312 312 310
357 357 356 356 356 355 354 354 356 356 352 351 350 347 349 346 347 346 347 345 341 341 341 334 334 334 332 324 325 321 321 312 310 311 312 312 310 308
357 355 352 349 345 344 345 345 345 345 345 343 343 344 342 336 335 338 340 335 332 330 330 329 330 333 331 329 325 322 318 311 312 311 312 311 309 307
338 337 336 337 337 339 342 342 339 335 334 336 336 336 337 333 334 335 332 329 331 330 332 332 333 333 332 330 326 322 318 313 312 312 312 310 309 308
333 333 334 333 331 331 331 331 332 332 335 334 335 335 334 332 329 330 332 330 332 331 333 333 332 333 331 326 324 322 319 315 313 313 311 310 308 308
331 331 331 329 329 330 331 334 334 332 332 332 333 334 335 334 335 334 330 333 334 334 333 333 331 327 326 325 323 320 316 312 310 311 311 310 309 308